AWC78E LGAV-HKJK

Flight info

Callsign AWC78E
Flight time N/A
Altitude 35000
Route KEA UL617 MIL UJ56 SUD DCT SALUN L604 MEVDA/N0459F370 P557 NUBAR P309 AVONO/N0465F380 A727 ANTAX/N0468F370 UA727 KAMAS KAMAS1A
Aircraft A21N/M-SDE2E3FGHIRWXY/LB1

Departure

Time 2026-05-07 16:15
Airport Athens Eleftherios Venizelos International Airport (LGAV)

Arrival

Time N/A
Airport Jomo Kenyatta International Airport (HKJK)
Time Latitude Longitude Altitude Speed Heading
2026-05-07 15:48 37.92914 23.94109 307 ft 0 kts 217°
2026-05-07 16:01 37.92914 23.94110 307 ft 1 kts 217°
2026-05-07 16:01 37.92930 23.94125 307 ft 3 kts 217°
2026-05-07 16:01 37.92947 23.94141 307 ft 3 kts 217°
2026-05-07 16:02 37.92963 23.94155 308 ft 2 kts 217°
2026-05-07 16:02 37.92979 23.94167 307 ft 3 kts 186°
2026-05-07 16:02 37.92995 23.94163 309 ft 3 kts 140°
2026-05-07 16:02 37.93008 23.94145 307 ft 1 kts 127°
2026-05-07 16:03 37.93011 23.94140 308 ft 0 kts 127°
2026-05-07 16:05 37.93010 23.94142 307 ft 1 kts 127°
2026-05-07 16:05 37.93000 23.94158 308 ft 4 kts 127°
2026-05-07 16:05 37.92972 23.94204 307 ft 9 kts 127°
2026-05-07 16:06 37.92929 23.94275 307 ft 11 kts 128°
2026-05-07 16:06 37.92883 23.94356 307 ft 12 kts 104°
2026-05-07 16:06 37.92920 23.94444 310 ft 13 kts 35°
2026-05-07 16:06 37.92993 23.94513 306 ft 13 kts 37°
2026-05-07 16:07 37.93070 23.94584 308 ft 14 kts 37°
2026-05-07 16:07 37.93150 23.94663 308 ft 15 kts 39°
2026-05-07 16:07 37.93231 23.94744 306 ft 16 kts 37°
2026-05-07 16:07 37.93323 23.94829 306 ft 16 kts 34°
2026-05-07 16:08 37.93395 23.94895 307 ft 11 kts 37°
2026-05-07 16:08 37.93457 23.94955 307 ft 12 kts 38°
2026-05-07 16:08 37.93525 23.95020 305 ft 13 kts 37°
2026-05-07 16:08 37.93598 23.95087 306 ft 13 kts 36°
2026-05-07 16:09 37.93674 23.95158 308 ft 14 kts 37°
2026-05-07 16:09 37.93754 23.95235 306 ft 15 kts 38°
2026-05-07 16:09 37.93838 23.95316 305 ft 16 kts 37°
2026-05-07 16:09 37.93927 23.95401 304 ft 16 kts 38°
2026-05-07 16:10 37.94020 23.95488 304 ft 17 kts 38°
2026-05-07 16:10 37.94119 23.95581 305 ft 18 kts 38°
2026-05-07 16:10 37.94226 23.95680 306 ft 20 kts 38°
2026-05-07 16:10 37.94331 23.95784 308 ft 13 kts 38°
2026-05-07 16:11 37.94359 23.95874 306 ft 12 kts 103°
2026-05-07 16:11 37.94373 23.95974 304 ft 14 kts 38°
2026-05-07 16:11 37.94457 23.96045 305 ft 15 kts 34°
2026-05-07 16:11 37.94547 23.96129 305 ft 17 kts 37°
2026-05-07 16:12 37.94645 23.96222 307 ft 18 kts 37°
2026-05-07 16:12 37.94749 23.96324 305 ft 20 kts 37°
2026-05-07 16:12 37.94862 23.96431 306 ft 21 kts 37°
2026-05-07 16:12 37.94984 23.96543 309 ft 22 kts 36°
2026-05-07 16:13 37.95112 23.96661 309 ft 23 kts 37°
2026-05-07 16:13 37.95246 23.96788 308 ft 25 kts 37°
2026-05-07 16:13 37.95370 23.96909 308 ft 15 kts 45°
2026-05-07 16:13 37.95361 23.97018 311 ft 16 kts 155°
2026-05-07 16:14 37.95241 23.97036 315 ft 18 kts 177°
2026-05-07 16:14 37.95153 23.96987 315 ft 14 kts 218°
2026-05-07 16:14 37.94917 23.96763 311 ft 79 kts 216°
2026-05-07 16:14 37.94219 23.96102 292 ft 167 kts 217°
2026-05-07 16:15 37.93172 23.95106 739 ft 196 kts 217°
2026-05-07 16:15 37.92001 23.94154 1671 ft 203 kts 207°
2026-05-07 16:15 37.90736 23.93367 2592 ft 204 kts 207°
2026-05-07 16:15 37.89459 23.92538 3480 ft 208 kts 207°
2026-05-07 16:16 37.88164 23.91678 4349 ft 213 kts 208°
2026-05-07 16:16 37.86842 23.90785 5207 ft 218 kts 208°
2026-05-07 16:16 37.85515 23.89883 6043 ft 221 kts 208°
2026-05-07 16:16 37.84146 23.88952 6882 ft 226 kts 208°
2026-05-07 16:17 37.82718 23.88100 7718 ft 229 kts 196°
2026-05-07 16:17 37.81128 23.87960 8563 ft 231 kts 175°
2026-05-07 16:17 37.79507 23.88204 9298 ft 240 kts 173°
2026-05-07 16:17 37.77783 23.88463 9755 ft 258 kts 174°
2026-05-07 16:18 37.75947 23.88724 10226 ft 273 kts 175°
2026-05-07 16:18 37.74005 23.88991 10728 ft 289 kts 175°
2026-05-07 16:18 37.71954 23.89268 11244 ft 304 kts 175°
2026-05-07 16:18 37.69796 23.89556 11758 ft 320 kts 175°
2026-05-07 16:19 37.67530 23.89858 12269 ft 335 kts 176°
2026-05-07 16:19 37.65161 23.90170 12758 ft 349 kts 176°
2026-05-07 16:19 37.62733 23.90486 13266 ft 362 kts 176°
2026-05-07 16:19 37.60185 23.90822 13771 ft 374 kts 177°
2026-05-07 16:20 37.57555 23.91167 14282 ft 387 kts 177°
2026-05-07 16:20 37.54838 23.91527 14771 ft 397 kts 177°
2026-05-07 16:20 37.52060 23.91900 15269 ft 406 kts 177°
2026-05-07 16:20 37.49230 23.92262 15764 ft 412 kts 178°
2026-05-07 16:21 37.46357 23.92629 16255 ft 418 kts 178°
2026-05-07 16:21 37.43448 23.93007 16741 ft 424 kts 178°
2026-05-07 16:21 37.40523 23.93396 17217 ft 434 kts 178°
2026-05-07 16:21 37.37486 23.93806 17652 ft 442 kts 178°
2026-05-07 16:22 37.34411 23.94213 18046 ft 446 kts 178°
2026-05-07 16:22 37.31311 23.94614 18435 ft 450 kts 178°
2026-05-07 16:22 37.28183 23.95022 18846 ft 453 kts 178°
2026-05-07 16:22 37.25043 23.95437 19254 ft 456 kts 178°
2026-05-07 16:23 37.21876 23.95846 19661 ft 459 kts 178°
2026-05-07 16:23 37.18685 23.96261 20057 ft 462 kts 178°
2026-05-07 16:23 37.15520 23.96678 20428 ft 466 kts 178°
2026-05-07 16:23 37.12286 23.97104 20847 ft 469 kts 178°
2026-05-07 16:24 37.09026 23.97527 21287 ft 473 kts 178°
2026-05-07 16:24 37.05745 23.97956 21752 ft 476 kts 178°
2026-05-07 16:24 37.02435 23.98388 22195 ft 480 kts 178°
2026-05-07 16:24 36.99099 23.98818 22620 ft 483 kts 178°
2026-05-07 16:25 36.95742 23.99251 23019 ft 487 kts 178°
2026-05-07 16:25 36.92349 23.99688 23397 ft 491 kts 178°
2026-05-07 16:25 36.88938 24.00122 23750 ft 495 kts 178°
2026-05-07 16:25 36.85549 24.00548 24101 ft 498 kts 178°
2026-05-07 16:26 36.82090 24.00987 24471 ft 501 kts 177°
2026-05-07 16:26 36.78623 24.01435 24915 ft 501 kts 178°
2026-05-07 16:26 36.75159 24.01890 25362 ft 500 kts 178°
2026-05-07 16:26 36.72872 24.02192 25657 ft 500 kts 178°
2026-05-07 16:27 36.68238 24.02787 26234 ft 500 kts 178°
2026-05-07 16:27 36.64782 24.03226 26669 ft 500 kts 179°
2026-05-07 16:27 36.61316 24.03661 27118 ft 499 kts 179°
2026-05-07 16:27 36.57869 24.04105 27550 ft 499 kts 179°
2026-05-07 16:28 36.54418 24.04550 27946 ft 499 kts 179°
2026-05-07 16:28 36.51011 24.04990 28345 ft 498 kts 179°
2026-05-07 16:28 36.47565 24.05428 28716 ft 498 kts 180°
2026-05-07 16:28 36.44116 24.05868 29097 ft 498 kts 180°
2026-05-07 16:29 36.40669 24.06314 29468 ft 498 kts 180°
2026-05-07 16:29 36.37234 24.06755 29828 ft 497 kts 180°
2026-05-07 16:29 36.33796 24.07193 30215 ft 497 kts 181°
2026-05-07 16:29 36.30356 24.07628 30574 ft 497 kts 181°
2026-05-07 16:30 36.26949 24.08060 30863 ft 499 kts 181°
2026-05-07 16:30 36.23493 24.08502 31114 ft 501 kts 182°
2026-05-07 16:30 36.20017 24.08951 31364 ft 503 kts 181°
2026-05-07 16:30 36.16529 24.09395 31619 ft 505 kts 182°
2026-05-07 16:31 36.13021 24.09835 31846 ft 507 kts 182°
2026-05-07 16:31 36.09511 24.10274 32076 ft 509 kts 182°
2026-05-07 16:31 36.05978 24.10720 32288 ft 512 kts 182°
2026-05-07 16:31 36.02428 24.11168 32519 ft 514 kts 183°
2026-05-07 16:32 35.98871 24.11618 32752 ft 516 kts 183°
2026-05-07 16:32 35.95340 24.12059 32989 ft 517 kts 183°
2026-05-07 16:32 35.91764 24.12504 33235 ft 518 kts 183°
2026-05-07 16:32 35.88174 24.12957 33455 ft 520 kts 184°
2026-05-07 16:33 35.84566 24.13413 33664 ft 521 kts 184°
2026-05-07 16:33 35.80960 24.13868 33876 ft 522 kts 184°
2026-05-07 16:33 35.77338 24.14324 34076 ft 523 kts 184°
2026-05-07 16:33 35.73714 24.14776 34257 ft 524 kts 184°
2026-05-07 16:34 35.70083 24.15231 34503 ft 524 kts 184°
2026-05-07 16:34 35.66460 24.15685 34718 ft 523 kts 184°
2026-05-07 16:34 35.62892 24.16134 34927 ft 522 kts 184°
2026-05-07 16:34 35.59272 24.16587 35108 ft 523 kts 183°
2026-05-07 16:35 35.55659 24.17042 35309 ft 523 kts 184°
2026-05-07 16:35 35.52037 24.17526 35483 ft 525 kts 181°
2026-05-07 16:35 35.48414 24.18168 35676 ft 526 kts 180°
2026-05-07 16:35 35.44794 24.18837 35888 ft 526 kts 180°
2026-05-07 16:36 35.41182 24.19508 36088 ft 524 kts 180°
2026-05-07 16:36 35.37572 24.20176 36255 ft 525 kts 180°
2026-05-07 16:36 35.34011 24.20837 36425 ft 524 kts 180°
2026-05-07 16:36 35.30412 24.21496 36592 ft 524 kts 180°
2026-05-07 16:37 35.26807 24.22160 36764 ft 524 kts 180°
2026-05-07 16:37 35.23214 24.22815 36950 ft 521 kts 180°
2026-05-07 16:37 35.19640 24.23470 37135 ft 517 kts 180°
2026-05-07 16:38 35.12523 24.24769 37184 ft 516 kts 180°
2026-05-07 16:38 35.05420 24.26064 37152 ft 516 kts 180°
2026-05-07 16:39 34.98310 24.27353 37143 ft 517 kts 180°
2026-05-07 16:39 34.91251 24.28640 37143 ft 517 kts 180°
2026-05-07 16:40 34.84118 24.29927 37149 ft 518 kts 180°
2026-05-07 16:40 34.76996 24.31206 37142 ft 518 kts 180°
2026-05-07 16:41 34.69869 24.32497 37143 ft 518 kts 180°
2026-05-07 16:41 34.62782 24.33777 37143 ft 519 kts 179°
2026-05-07 16:42 34.55631 24.35057 37141 ft 519 kts 179°
2026-05-07 16:42 34.48484 24.36346 37141 ft 520 kts 179°
2026-05-07 16:43 34.41339 24.37623 37141 ft 519 kts 180°
2026-05-07 16:43 34.34187 24.38905 37140 ft 519 kts 179°
2026-05-07 16:44 34.27096 24.40171 37140 ft 519 kts 180°
2026-05-07 16:44 34.19949 24.41436 37142 ft 519 kts 179°
2026-05-07 16:45 34.12801 24.42718 37142 ft 519 kts 179°
2026-05-07 16:45 34.05658 24.43990 37142 ft 520 kts 180°
2026-05-07 16:46 33.98602 24.45909 37130 ft 536 kts 161°
2026-05-07 16:46 33.91977 24.50195 37142 ft 541 kts 154°
2026-05-07 16:47 33.85405 24.54607 37140 ft 540 kts 155°
2026-05-07 16:47 33.78815 24.58933 37141 ft 540 kts 155°
2026-05-07 16:48 33.72223 24.63256 37139 ft 539 kts 155°
2026-05-07 16:48 33.65680 24.67560 37140 ft 540 kts 155°
2026-05-07 16:49 33.59090 24.71880 37140 ft 539 kts 155°
2026-05-07 16:49 33.52504 24.76192 37142 ft 539 kts 155°
2026-05-07 16:50 33.45916 24.80498 37140 ft 539 kts 155°
2026-05-07 16:50 33.39363 24.84770 37141 ft 539 kts 155°
2026-05-07 16:51 33.32776 24.89052 37141 ft 540 kts 155°
2026-05-07 16:51 33.26172 24.93338 37148 ft 539 kts 155°
2026-05-07 16:52 33.19582 24.97620 37152 ft 539 kts 155°
2026-05-07 16:52 33.12996 25.01921 37153 ft 540 kts 155°
2026-05-07 16:53 33.06439 25.06165 37150 ft 539 kts 155°
2026-05-07 16:53 32.99849 25.10423 37151 ft 539 kts 155°
2026-05-07 16:54 32.93254 25.14663 37148 ft 539 kts 155°
2026-05-07 16:54 32.86654 25.18908 37151 ft 539 kts 155°
2026-05-07 16:55 32.80108 25.23105 37159 ft 539 kts 155°
2026-05-07 16:55 32.73523 25.27333 37161 ft 538 kts 155°
2026-05-07 16:56 32.66927 25.31545 37161 ft 538 kts 155°
2026-05-07 16:56 32.57032 25.37877 37161 ft 538 kts 155°
2026-05-07 16:57 32.50482 25.42049 37161 ft 538 kts 155°
2026-05-07 16:57 32.43880 25.46245 37163 ft 539 kts 155°
2026-05-07 16:58 32.37273 25.50442 37159 ft 538 kts 154°
2026-05-07 16:58 32.30677 25.54629 37160 ft 539 kts 154°
2026-05-07 16:59 32.24059 25.58815 37161 ft 539 kts 155°
2026-05-07 16:59 32.17486 25.62965 37163 ft 540 kts 155°
2026-05-07 17:00 32.10859 25.67148 37162 ft 540 kts 154°
2026-05-07 17:00 32.04231 25.71330 37159 ft 540 kts 154°
2026-05-07 17:01 31.98724 25.74792 37160 ft 540 kts 155°
2026-05-07 17:01 31.91028 25.79621 37161 ft 540 kts 154°
2026-05-07 17:02 31.84405 25.83765 37167 ft 539 kts 155°
2026-05-07 17:02 31.77779 25.87897 37169 ft 539 kts 155°
2026-05-07 17:03 31.71156 25.92027 37170 ft 539 kts 155°
2026-05-07 17:03 31.64585 25.96134 37169 ft 538 kts 154°
2026-05-07 17:04 31.57990 26.00289 37170 ft 538 kts 152°
2026-05-07 17:04 31.52766 26.04273 37174 ft 540 kts 147°
2026-05-07 17:05 31.46559 26.09235 37166 ft 540 kts 147°
2026-05-07 17:05 31.40354 26.14156 37163 ft 538 kts 147°
2026-05-07 17:06 31.33158 26.19891 37167 ft 538 kts 147°
2026-05-07 17:06 31.27977 26.24017 37164 ft 537 kts 147°
2026-05-07 17:07 31.21833 26.28869 37165 ft 536 kts 147°
2026-05-07 17:07 31.15647 26.33734 37171 ft 535 kts 147°
2026-05-07 17:08 31.09485 26.38585 37170 ft 534 kts 147°
2026-05-07 17:08 31.03320 26.43428 37169 ft 534 kts 147°
2026-05-07 17:09 30.97182 26.48206 37171 ft 534 kts 147°
2026-05-07 17:09 30.91026 26.53028 37172 ft 533 kts 147°
2026-05-07 17:10 30.84884 26.57833 37172 ft 532 kts 146°
2026-05-07 17:10 30.78744 26.62647 37172 ft 532 kts 146°
2026-05-07 17:11 30.72663 26.67424 37173 ft 531 kts 147°
2026-05-07 17:11 30.66533 26.72198 37169 ft 530 kts 147°
2026-05-07 17:12 30.60403 26.76971 37160 ft 531 kts 147°
2026-05-07 17:12 30.54272 26.81724 37163 ft 530 kts 147°
2026-05-07 17:13 30.48151 26.86471 37162 ft 529 kts 147°
2026-05-07 17:13 30.42029 26.91210 37162 ft 529 kts 147°
2026-05-07 17:14 30.35901 26.95943 37159 ft 530 kts 147°
2026-05-07 17:14 30.29771 27.00675 37158 ft 529 kts 146°
2026-05-07 17:15 30.23637 27.05405 37159 ft 530 kts 146°
2026-05-07 17:15 30.21610 27.06965 37158 ft 530 kts 147°